GW1675 Weather Reports


time (UTC)temp
F
wind
direction
speed
knots
gust
knots
rain 1hr
in
rain 24hr
in
rain mn
in
humidity
%
barometer
mb
20260506181607 69 173 3.5 6.1 0.00 0.00 0.00 64 1010.3
20260506180048 70 173 3.5 10.4 0.00 0.00 0.00 64 1010.3
20260506174545 70 173 7.8 13.0 0.00 0.00 0.00 64 1010.5
20260506173112 71 172 7.0 13.0 0.00 0.00 0.00 65 1010.7
20260506171549 71 172 7.0 12.2 0.00 0.00 0.00 65 1010.7
20260506170052 71 172 8.7 12.2 0.00 0.00 0.00 66 1010.8
20260506164545 71 172 7.8 12.2 0.00 0.00 0.00 66 1010.8
20260506163053 71 172 7.0 13.0 0.00 0.00 0.00 67 1011.0
20260506161547 71 171 5.2 11.3 0.00 0.00 0.00 67 1011.2
20260506160046 70 172 7.0 14.8 0.00 0.00 0.00 67 1011.3
20260506154606 69 174 6.1 13.9 0.00 0.00 0.00 66 1011.5
20260506153046 68 178 7.8 14.8 0.00 0.00 0.00 66 1011.7
20260506151546 67 181 11.3 18.2 0.00 0.00 0.00 66 1012.0
20260506150047 68 180 9.6 17.4 0.00 0.00 0.00 65 1012.2
20260506144551 68 181 8.7 15.6 0.00 0.00 0.00 65 1012.5
20260506143044 67 181 9.6 16.5 0.00 0.00 0.00 65 1012.5
20260506141549 68 169 7.8 15.6 0.00 0.00 0.00 65 1013.0
20260506140048 69 161 9.6 14.8 0.00 0.00 0.00 65 1013.2
20260506134544 69 160 6.1 14.8 0.00 0.00 0.00 65 1013.3
20260506133056 70 153 4.3 12.2 0.00 0.00 0.00 66 1013.4
20260506131545 69 149 6.1 12.2 0.00 0.00 0.00 66 1013.6
20260506130046 69 146 7.0 11.3 0.00 0.00 0.00 66 1013.6
20260506124545 69 141 4.3 11.3 0.00 0.00 0.00 67 1014.0
20260506123047 69 131 5.2 10.4 0.00 0.00 0.00 67 1014.0
20260506121545 68 129 7.0 12.2 0.00 0.00 0.00 67 1014.3
20260506120044 68 127 6.1 12.2 0.00 0.00 0.00 67 1014.4
20260506114548 68 106 5.2 11.3 0.00 0.00 0.00 67 1014.5
20260506113042 67 106 7.8 11.3 0.00 0.00 0.00 67 1014.6
20260506111549 67 105 6.1 11.3 0.00 0.00 0.00 68 1014.8
20260506110047 67 105 7.0 11.3 0.00 0.00 0.00 68 1014.9
20260506104608 67 105 4.3 10.4 0.00 0.00 0.00 68 1014.9
20260506103044 66 105 6.1 9.6 0.00 0.00 0.00 68 1015.0
20260506101548 66 105 4.3 8.7 0.00 0.00 0.00 68 1014.9
20260506100046 68 105 0.9 7.0 0.00 0.00 0.00 69 1014.9
20260506094540 66 105 2.6 9.6 0.00 0.00 0.00 69 1014.9
20260506093045 66 105 3.5 6.1 0.00 0.00 0.00 70 1014.7
20260506091544 65 105 2.6 10.4 0.00 0.00 0.00 70 1014.8
20260506090047 64 105 1.7 7.8 0.00 0.00 0.00 70 1014.9
20260506084544 64 105 1.7 7.8 0.00 0.00 0.00 70 1014.9
20260506083047 63 105 1.7 7.8 0.00 0.00 0.00 70 1014.9
20260506081557 61 105 3.5 7.0 0.00 0.00 0.00 70 1014.9
20260506073048 59 105 3.5 10.4 0.00 0.00 0.00 70 1015.1
20260506071545 58 105 5.2 11.3 0.00 0.00 0.00 70 1015.0
20260506061552 56 105 6.1 9.6 0.00 0.00 0.00 70 1014.9
20260506044554 55 105 5.2 9.6 0.00 0.00 0.00 68 1014.7
20260506043053 56 105 6.1 9.6 0.00 0.00 0.00 68 1014.7
20260506041546 56 105 6.1 10.4 0.00 0.00 0.00 68 1015.0
20260506040053 56 105 5.2 10.4 0.00 0.00 0.00 68 1014.9
20260506034552 56 105 7.0 11.3 0.00 0.00 0.00 68 1014.9
20260506033045 57 105 6.1 11.3 0.00 0.00 0.00 68 1015.0
20260506031547 57 105 6.1 11.3 0.00 0.00 0.00 68 1015.0
20260506030052 57 105 6.1 11.3 0.00 0.00 0.00 68 1015.2
20260506024547 57 105 5.2 11.3 0.00 0.00 0.00 68 1015.2
20260506023050 58 105 4.3 7.8 0.00 0.00 0.00 68 1015.2
20260506021556 58 105 7.0 11.3 0.00 0.00 0.00 67 1015.4
20260506020044 58 105 5.2 11.3 0.00 0.00 0.00 67 1015.5
20260506014543 58 105 6.1 10.4 0.00 0.00 0.00 67 1015.6
20260506011550 58 104 5.2 13.0 0.00 0.00 0.00 67 1015.8
20260506010055 59 104 7.0 13.9 0.00 0.00 0.00 67 1015.9
20260506004545 59 104 6.1 15.6 0.00 0.00 0.00 67 1016.0
20260506003059 59 100 6.1 13.0 0.00 0.00 0.00 66 1016.2
20260506001544 60 100 4.3 12.2 0.00 0.00 0.00 66 1016.3
20260506000046 60 98 9.6 14.8 0.00 0.00 0.00 66 1016.5
20260505234606 60 97 7.0 16.5 0.00 0.00 0.00 66 1016.5
20260505233042 60 94 7.8 14.8 0.00 0.00 0.00 66 1016.6
20260505231549 60 91 7.0 15.6 0.00 0.00 0.00 65 1016.6
20260505230047 60 91 7.0 12.2 0.00 0.00 0.00 65 1016.7
20260505224545 61 89 7.0 16.5 0.00 0.00 0.00 64 1016.7
20260505223102 61 88 9.6 16.5 0.00 0.00 0.00 64 1016.6
20260505221545 61 91 8.7 13.9 0.00 0.00 0.00 64 1016.7
20260505220047 61 89 7.8 14.8 0.00 0.00 0.00 63 1016.8
20260505214552 61 87 9.6 14.8 0.00 0.00 0.00 63 1016.8
20260505213045 61 88 7.0 14.8 0.00 0.00 0.00 62 1017.0
20260505211552 62 89 7.8 13.0 0.00 0.00 0.00 62 1017.0
20260505210045 62 88 8.7 15.6 0.00 0.00 0.00 62 1017.0
20260505204543 63 91 7.8 13.9 0.00 0.00 0.00 61 1016.7
20260505203051 63 94 6.1 12.2 0.00 0.00 0.00 61 1016.7
20260505201548 64 96 7.0 14.8 0.00 0.00 0.00 60 1016.5
20260505200045 64 101 7.0 13.0 0.00 0.00 0.00 60 1016.5
20260505194545 65 105 7.0 13.9 0.00 0.00 0.00 60 1016.3
20260505193043 66 105 6.1 12.2 0.00 0.00 0.00 59 1016.1
20260505191547 67 106 5.2 10.4 0.00 0.00 0.00 59 1015.8
20260505190044 68 108 4.3 10.4 0.00 0.00 0.00 59 1015.7
20260505184550 69 108 3.5 11.3 0.00 0.00 0.00 59 1015.7
20260505183048 69 109 3.5 8.7 0.00 0.00 0.00 60 1015.7